| time (UTC) | temp F | wind direction | speed MPH | gust MPH | rain 1hr in | rain 24hr in | rain mn in | humidity % | barometer mb |
| 20260502221504 | 93 | 217 | 1.0 | 7.0 | 0.00 | 0.00 | 0.00 | 14 | 1007.5 |
| 20260502220045 | 94 | 256 | 2.0 | 5.0 | 0.00 | 0.00 | 0.00 | 12 | 1007.7 |
| 20260502214529 | 94 | 212 | 0.0 | 6.0 | 0.00 | 0.00 | 0.00 | 13 | 1008.0 |
| 20260502213103 | 92 | 226 | 1.0 | 4.0 | 0.00 | 0.00 | 0.00 | 13 | 1008.2 |
| 20260502211555 | 93 | 260 | 0.0 | 4.0 | 0.00 | 0.00 | 0.00 | 11 | 1008.4 |
| 20260502210023 | 92 | 286 | 0.0 | 6.0 | 0.00 | 0.00 | 0.00 | 13 | 1008.5 |
| 20260502204519 | 92 | 268 | 0.0 | 8.0 | 0.00 | 0.00 | 0.00 | 16 | 1008.9 |
| 20260502203013 | 91 | 122 | 1.0 | 10.0 | 0.00 | 0.00 | 0.00 | 17 | 1009.0 |
| 20260502201512 | 92 | 254 | 1.0 | 5.0 | 0.00 | 0.00 | 0.00 | 16 | 1009.2 |
| 20260502200009 | 91 | 117 | 1.0 | 5.0 | 0.00 | 0.00 | 0.00 | 18 | 1009.3 |
| 20260502194507 | 87 | 242 | 0.0 | 3.0 | 0.00 | 0.00 | 0.00 | 21 | 1009.6 |
| 20260502193004 | 89 | 193 | 1.0 | 4.0 | 0.00 | 0.00 | 0.00 | 21 | 1009.7 |
| 20260502191502 | 89 | 255 | 0.0 | 10.0 | 0.00 | 0.00 | 0.00 | 19 | 1009.9 |
| 20260502190111 | 87 | 285 | 1.0 | 6.0 | 0.00 | 0.00 | 0.00 | 22 | 1010.2 |
| 20260502184559 | 86 | 113 | 3.0 | 10.0 | 0.00 | 0.00 | 0.00 | 24 | 1010.5 |
| 20260502183028 | 87 | 237 | 0.0 | 5.0 | 0.00 | 0.00 | 0.00 | 25 | 1010.7 |
| 20260502181531 | 86 | 131 | 2.0 | 9.0 | 0.00 | 0.00 | 0.00 | 25 | 1010.9 |
| 20260502163057 | 79 | 188 | 3.0 | 19.0 | 0.00 | 0.00 | 0.00 | 31 | 1011.4 |
| 20260502161532 | 78 | 123 | 8.0 | 17.0 | 0.00 | 0.00 | 0.00 | 31 | 1011.3 |
| 20260502151523 | 77 | 141 | 6.0 | 14.0 | 0.00 | 0.00 | 0.00 | 33 | 1011.0 |
| 20260502123024 | 58 | 108 | 0.0 | 0.0 | 0.00 | 0.00 | 0.00 | 42 | 1009.7 |
| 20260502121521 | 59 | 108 | 0.0 | 0.0 | 0.00 | 0.00 | 0.00 | 41 | 1009.6 |
| 20260502114515 | 61 | 120 | 0.0 | 4.0 | 0.00 | 0.00 | 0.00 | 38 | 1009.5 |
| 20260502113015 | 61 | 117 | 0.0 | 4.0 | 0.00 | 0.00 | 0.00 | 38 | 1009.4 |
| 20260502111513 | 61 | 99 | 0.0 | 2.0 | 0.00 | 0.00 | 0.00 | 39 | 1009.7 |
| 20260502110011 | 60 | 131 | 0.0 | 0.0 | 0.00 | 0.00 | 0.00 | 39 | 1009.9 |
| 20260502104505 | 61 | 131 | 0.0 | 0.0 | 0.00 | 0.00 | 0.00 | 37 | 1009.7 |
| 20260502103002 | 64 | 131 | 0.0 | 0.0 | 0.00 | 0.00 | 0.00 | 35 | 1009.4 |
| 20260502101606 | 63 | 10 | 0.0 | 0.0 | 0.00 | 0.00 | 0.00 | 35 | 1009.4 |
| 20260502071531 | 69 | 15 | 0.0 | 2.0 | 0.00 | 0.00 | 0.00 | 27 | 1009.3 |
| 20260502070039 | 70 | 299 | 0.0 | 3.0 | 0.00 | 0.00 | 0.00 | 28 | 1009.3 |
| 20260502064536 | 71 | 259 | 0.0 | 3.0 | 0.00 | 0.00 | 0.00 | 27 | 1009.4 |
| 20260502063028 | 72 | 299 | 1.0 | 3.0 | 0.00 | 0.00 | 0.00 | 24 | 1009.2 |
| 20260502061523 | 72 | 303 | 0.0 | 2.0 | 0.00 | 0.00 | 0.00 | 25 | 1009.0 |
| 20260502060022 | 73 | 307 | 2.0 | 4.0 | 0.00 | 0.00 | 0.00 | 26 | 1008.9 |
| 20260502054520 | 73 | 297 | 0.0 | 3.0 | 0.00 | 0.00 | 0.00 | 26 | 1008.8 |
| 20260502053020 | 74 | 7 | 0.0 | 3.0 | 0.00 | 0.00 | 0.00 | 25 | 1008.7 |
| 20260502051520 | 74 | 295 | 0.0 | 1.0 | 0.00 | 0.00 | 0.00 | 25 | 1008.6 |
| 20260502050019 | 75 | 300 | 1.0 | 5.0 | 0.00 | 0.00 | 0.00 | 25 | 1008.6 |
| 20260502044554 | 75 | 309 | 0.0 | 4.0 | 0.00 | 0.00 | 0.00 | 25 | 1008.4 |
| 20260502043056 | 76 | 307 | 3.0 | 7.0 | 0.00 | 0.00 | 0.00 | 25 | 1008.4 |
| 20260502041518 | 75 | 318 | 3.0 | 7.0 | 0.00 | 0.00 | 0.00 | 25 | 1008.2 |
| 20260502040018 | 74 | 304 | 2.0 | 3.0 | 0.00 | 0.00 | 0.00 | 26 | 1008.1 |
| 20260502034523 | 74 | 298 | 0.0 | 0.0 | 0.00 | 0.00 | 0.00 | 26 | 1007.8 |
| 20260502033016 | 75 | 302 | 1.0 | 3.0 | 0.00 | 0.00 | 0.00 | 25 | 1007.7 |
| 20260502031513 | 76 | 300 | 1.0 | 3.0 | 0.00 | 0.00 | 0.00 | 24 | 1007.5 |
| 20260502030013 | 76 | 308 | 0.0 | 2.0 | 0.00 | 0.00 | 0.00 | 24 | 1007.2 |
| 20260502024543 | 77 | 322 | 0.0 | 0.0 | 0.00 | 0.00 | 0.00 | 24 | 1006.9 |
| 20260502023042 | 78 | 287 | 0.0 | 4.0 | 0.00 | 0.00 | 0.00 | 22 | 1006.8 |
| 20260502021511 | 79 | 303 | 2.0 | 4.0 | 0.00 | 0.00 | 0.00 | 22 | 1006.6 |
| 20260502020010 | 81 | 302 | 3.0 | 8.0 | 0.00 | 0.00 | 0.00 | 21 | 1006.4 |
| 20260502014528 | 82 | 293 | 2.0 | 11.0 | 0.00 | 0.00 | 0.00 | 20 | 1006.4 |
| 20260502013007 | 83 | 291 | 4.0 | 10.0 | 0.00 | 0.00 | 0.00 | 19 | 1006.2 |
| 20260502011506 | 84 | 292 | 5.0 | 10.0 | 0.00 | 0.00 | 0.00 | 18 | 1006.2 |
| 20260502010009 | 84 | 290 | 6.0 | 12.0 | 0.00 | 0.00 | 0.00 | 19 | 1006.1 |
| 20260502004535 | 84 | 292 | 4.0 | 11.0 | 0.00 | 0.00 | 0.00 | 19 | 1005.9 |
| 20260502003034 | 85 | 295 | 2.0 | 12.0 | 0.00 | 0.00 | 0.00 | 18 | 1006.1 |
| 20260502001531 | 85 | 336 | 4.0 | 13.0 | 0.00 | 0.00 | 0.00 | 17 | 1006.1 |
| 20260502000044 | 84 | 229 | 6.0 | 13.0 | 0.00 | 0.00 | 0.00 | 19 | 1006.1 |
| 20260501234528 | 84 | 293 | 7.0 | 16.0 | 0.00 | 0.00 | 0.00 | 19 | 1006.1 |
| 20260501233028 | 85 | 302 | 2.0 | 9.0 | 0.00 | 0.00 | 0.00 | 20 | 1006.1 |
| 20260501231526 | 84 | 294 | 6.0 | 16.0 | 0.00 | 0.00 | 0.00 | 20 | 1006.2 |
| 20260501230025 | 84 | 309 | 0.0 | 15.0 | 0.00 | 0.00 | 0.00 | 21 | 1006.2 |
| 20260501224521 | 85 | 305 | 5.0 | 15.0 | 0.00 | 0.00 | 0.00 | 20 | 1006.4 |
| 20260501223020 | 84 | 255 | 4.0 | 19.0 | 0.00 | 0.00 | 0.00 | 21 | 1006.6 |